Change the Weather History Date:

Thursday, June 20, 2013

  Actual Average Record
Temperature  
Mean Temperature 81 °F -  
Max Temperature 87 °F 84 °F 91 °F (1998)
Min Temperature 76 °F 73 °F 71 °F (2002)
Cooling Degree Days 16    
Growing Degree Days 31 (Base 50)    
Moisture  
Dew Point 72 °F    
Average Humidity 76    
Maximum Humidity 90    
Minimum Humidity 65    
Precipitation  
Precipitation 0.00 in - - ()
Sea Level Pressure  
Sea Level Pressure 30.08 in    
Wind  
Wind Speed 6 mph (South)    
Max Wind Speed 13 mph    
Max Gust Speed -    
Visibility 10 miles    
Events Rain , Thunderstorm    
Averages and records for this station are not official NWS values.
T = Trace of Precipitation, MM = Missing Value Source: NWS Daily Summary

Daily Weather History Graph

Daily Weather History Graph

Search for Another Location

Airport or City:

Trip Planner

Search our weather history database for the weather conditions in past years. The results will help you decide how hot, cold, wet, or windy it might be!

Date:

Astronomy

Jun. 20, 2013 Rise Set
Actual Time 6:25 AM EDT 8:22 PM EDT
Civil Twilight 5:59 AM EDT 8:49 PM EDT
Nautical Twilight 5:26 AM EDT 9:21 PM EDT
Astronomical Twilight 4:52 AM EDT 9:55 PM EDT
Moon 5:30 PM EDT (6/20) 3:40 AM EDT (6/20)
Length of Visible Light 14h 49m
Length of Day
13h 56m
Waxing Gibbous, 89% of the Moon is Illuminated
Jun 20
Waxing Gibbous
Jun 23
Full
Jun 30
Last Quarter
Jul 8
New
Jul 15
First Quarter

Hourly Weather History & Observations

Time (EDT) Temp. Heat Index Dew Point Humidity Pressure Visibility Wind Dir Wind Speed Gust Speed Precip Events Conditions
12:58 AM 76.5 °F - 71.1 °F 83% 30.08 in 10.0 mi SSE 4.6 mph - N/A   Clear
1:58 AM 76.8 °F - 72.0 °F 85% 30.08 in 10.0 mi South 2.3 mph - N/A   Partly Cloudy
2:58 AM 79.5 °F - 72.7 °F 79% 30.06 in 10.0 mi South 3.5 mph - N/A   Partly Cloudy
3:03 AM 78.8 °F - 71.6 °F 78% 30.04 in 9.0 mi SSE 3.5 mph - N/A   Partly Cloudy
3:13 AM 77.0 °F - 71.6 °F 83% 30.04 in 10.0 mi SSE 3.5 mph - N/A   Clear
3:58 AM 77.5 °F - 72.9 °F 85% 30.04 in 10.0 mi SSW 4.6 mph - N/A   Clear
4:58 AM 77.9 °F - 73.4 °F 86% 30.04 in 10.0 mi WSW 5.8 mph - N/A   Clear
5:58 AM 76.3 °F - 73.0 °F 90% 30.06 in 10.0 mi SSW 5.8 mph - N/A   Clear
6:58 AM 76.1 °F - 72.7 °F 89% 30.08 in 10.0 mi SW 2.3 mph - N/A   Clear
7:58 AM 79.3 °F - 74.3 °F 84% 30.09 in 10.0 mi SSW 5.8 mph - N/A   Clear
8:58 AM 82.6 °F 89.4 °F 74.7 °F 77% 30.11 in 10.0 mi West 5.8 mph - N/A   Clear
9:58 AM 84.9 °F 93.7 °F 75.2 °F 73% 30.12 in 10.0 mi West 4.6 mph - N/A   Clear
10:55 AM 86.2 °F 94.2 °F 74.1 °F 67% 30.11 in 10.0 mi WSW 5.8 mph - N/A   Clear
11:55 AM 84.2 °F 92.3 °F 75.2 °F 74% 30.10 in 10.0 mi East 9.2 mph - N/A   Clear
12:55 PM 86.0 °F 96.9 °F 77.0 °F 74% 30.09 in 10.0 mi East 10.4 mph - N/A   Partly Cloudy
1:37 PM 82.4 °F 88.2 °F 73.4 °F 74% 30.09 in 10.0 mi South 9.2 mph - N/A Thunderstorm Thunderstorm
1:54 PM 82.4 °F 87.2 °F 71.6 °F 70% 30.09 in 10.0 mi SSE 10.4 mph - N/A Rain Light Rain
1:55 PM 82.4 °F 87.2 °F 71.6 °F 70% 30.09 in 10.0 mi SSE 11.5 mph - N/A Rain Light Rain
2:12 PM 80.6 °F 84.6 °F 71.6 °F 74% 30.08 in 10.0 mi SSE 6.9 mph - N/A   Clear
2:55 PM 84.2 °F 89.6 °F 71.6 °F 66% 30.06 in 10.0 mi SE 8.1 mph - N/A   Light Drizzle
3:06 PM 82.4 °F 86.3 °F 69.8 °F 66% 30.05 in 10.0 mi SE 11.5 mph - N/A   Clear
3:55 PM 84.2 °F 90.9 °F 73.4 °F 70% 30.08 in 10.0 mi SSE 9.2 mph - N/A   Clear
4:48 PM 80.6 °F 83.9 °F 69.8 °F 70% 30.07 in 10.0 mi NNE 12.7 mph - N/A Thunderstorm Partly Cloudy
4:55 PM 80.6 °F 83.2 °F 68.0 °F 65% 30.06 in 10.0 mi NNE 9.2 mph - N/A   Partly Cloudy
7:58 PM 81.5 °F 86.3 °F 72.7 °F 74% 30.12 in 10.0 mi West 9.2 mph - N/A   Partly Cloudy
8:58 PM 78.6 °F - 70.9 °F 77% 30.11 in 10.0 mi WNW 5.8 mph - N/A   Clear
9:58 PM 77.9 °F - 69.3 °F 75% 30.09 in 10.0 mi SE 2.3 mph - N/A   Clear
10:58 PM 77.2 °F - 70.3 °F 79% 30.10 in 10.0 mi West 5.8 mph - N/A   Clear
11:58 PM 77.0 °F - 70.3 °F 80% 30.11 in 10.0 mi SSE 2.3 mph - N/A   Clear